Location: Kolin
(50.0330°N, 15.2000°E)
Time: 19:34:51
(UTC+02:00)

UKube-1 - Visible Passes

Search period start: 13 August 2022 00:00
Search period end: 23 August 2022 00:00
Orbit: 608 x 615 km, 98.4° (Epoch: 13 August)

Date Brightness Start Highest point End Pass type
(mag) Time Alt. Az. Time Alt. Az. Time Alt. Az.
13 Aug ? 00:54:09 10° NNW 00:56:38 15° WNW 00:58:52 11° W visible
13 Aug ? 21:57:28 10° ENE 21:59:33 13° E 21:59:40 13° E visible
13 Aug ? 23:31:41 10° NNE 23:35:59 77° WNW 23:36:39 61° SW visible
14 Aug ? 01:09:39 10° NNW 01:11:08 12° NW 01:12:38 10° WNW visible
14 Aug ? 22:11:27 10° NE 22:14:25 18° E 22:14:25 18° E visible
14 Aug ? 23:46:27 10° N 23:50:39 55° WNW 23:51:24 48° WSW visible
15 Aug ? 22:25:44 10° NE 22:29:10 24° E 22:29:10 24° E visible
16 Aug ? 00:01:17 10° N 00:05:18 41° WNW 00:06:10 36° W visible
16 Aug ? 22:40:10 10° NNE 22:43:55 33° E 22:43:55 33° E visible
17 Aug ? 00:16:09 10° N 00:19:54 30° WNW 00:20:54 27° W visible
17 Aug ? 22:54:42 10° NNE 22:58:40 45° E 22:58:40 45° E visible
18 Aug ? 00:31:05 10° N 00:34:29 23° WNW 00:35:39 21° W visible
18 Aug ? 23:09:18 10° NNE 23:13:24 62° E 23:13:24 62° E visible
19 Aug ? 00:46:08 10° NNW 00:49:02 18° WNW 00:50:23 16° W visible
19 Aug ? 21:50:44 10° ENE 21:51:09 10° E 21:51:09 10° E visible
19 Aug ? 23:23:58 10° NNE 23:28:08 84° NE 23:28:08 84° NE visible
20 Aug ? 01:01:21 10° NNW 01:03:33 14° NW 01:05:07 12° W visible
20 Aug ? 22:04:08 10° NE 22:05:53 14° ENE 22:05:53 14° ENE visible
20 Aug ? 23:38:40 10° N 23:42:52 68° WNW 23:42:52 68° WNW visible
21 Aug ? 01:17:08 10° NW 01:18:02 11° NW 01:18:56 10° WNW visible
21 Aug ? 22:18:14 10° NE 22:20:37 19° ENE 22:20:37 19° ENE visible
21 Aug ? 23:53:26 10° N 23:57:35 50° WNW 23:57:35 50° WNW visible
22 Aug ? 22:32:33 10° NE 22:35:20 25° ENE 22:35:20 25° ENE visible
